sat.trackr.live / text

‹ back to catalog

STARLINK-2663

NORAD 48443 · 2021-040R

PAYLOAD ACTIVE UNKNOWN

§ Identity

Operator
Country
US
Launch date
2021-05-09
Launch site
AFETR
Launch vehicle
Mass (kg)
RCS (m²)

Purposes: comms

External: N2YO · Heavens-Above · Gunter

§ Orbital elements

Epoch: 2026-09-19T22:15:11.843424Z

Period
94.01 min
Inclination
53.1604°
Eccentricity
0.0001555
Mean motion
15.31707676 rev/d
Perigee alt
469.7 km
Apogee alt
471.8 km
Semi-major
6,848.9 km
B*
3.0296e-5
RAAN
354.1445°
Arg perigee
74.4972°
Mean anomaly
285.6201°
Rev number
29,644

§ Raw data

STARLINK-26631 48443U 21040R   26262.92722041  .00000575  00000+0  30296-4 0  99952 48443  53.1604 354.1445 0001555  74.4972 285.6201 15.31707676296441

JSON: /api/v1/satellites/48443 · /tle

For live sub-satellite position, see the globe view (requires WebGL).

§ Visibility from observer

Set your observer location to see the next 7 days of passes ≥ 10°. The values pass through the URL so the page stays shareable.

No JS? Fill the form by hand. The geolocation button needs JavaScript.